Location: T. Spence Memorial Observatory
(32.7356°N, 82.2098°W)
Time: 06:05:23
(UTC-04:00)

Daily predictions for brighter satellites

Satellite Brightness Start Highest point End
(mag) Time Altitude Azimuth Time Altitude Azimuth Time Altitude Azimuth
Meteor 2-3 Rocket 3.8 20:48:38 10° S 20:54:09 59° E 20:59:39 10° NNE
CZ-2D R/B 3.5 20:51:04 10° SSE 20:54:47 52° ENE 20:58:30 10° N
CZ-3C R/B 4.2 19:38:06 10° SW 20:54:49 39° S 21:04:32 10° ESE
FENGYUN 3A 3.8 20:50:37 10° SSE 20:55:54 58° ENE 21:01:11 10° N
Cosmos 1356 Rocket 4.2 20:52:51 10° SSE 20:56:37 33° E 21:00:27 10° NNE
Cosmos 1733 Rocket 4.2 20:53:09 10° SE 20:56:46 25° E 21:00:24 10° NE
Cosmos 2263 Rocket 3.3 20:51:26 10° SW 20:56:56 51° WNW 21:02:27 10° N
CZ-4B DEB 3.1 20:53:42 10° S 20:56:57 71° WSW 21:00:14 10° NNW
SL-8 R/B 4.4 20:54:37 10° WSW 20:59:22 59° NW 21:04:08 10° NE
Cosmos 2221 Rocket 3.7 20:55:57 10° N 21:00:23 83° W 21:04:47 10° S
Meteor 1-26 Rocket 4.4 20:54:58 10° N 21:00:51 72° E 21:06:42 10° SSE
GPS 2-05 Rocket1 3.6 21:02:34 10° SW 21:06:02 37° SSE 21:09:26 10° E
ERS-1 Rocket 3.9 21:03:09 10° SE 21:07:29 30° ENE 21:11:51 10° N
Cosmos 1340 Rocket 2.7 21:05:40 10° S 21:09:37 79° E 21:13:38 10° N
Cosmos 909 Rocket 4.2 21:04:08 10° SSW 21:10:26 81° ESE 21:17:46 10° NNE
Cosmos 2181 Rocket 4.1 21:04:51 10° N 21:11:19 84° E 21:17:40 10° S
In-Cosmos 22 Rocket 4.5 21:05:38 10° S 21:11:27 82° W 21:17:17 10° N
Meteor 2-10 Rocket 4.2 21:06:18 10° N 21:11:47 42° ENE 21:17:06 10° SSE
CZ-4 DEB 3.4 21:11:14 10° SE 21:14:10 36° ENE 21:17:07 10° N
Abrixas rocket 2.6 21:12:02 10° NW 21:15:25 56° NE 21:18:14 14° ESE
Atlas Centaur 2 1.1 21:17:15 10° WSW 21:20:46 58° S 21:23:48 14° E
USA 186 1.7 21:17:53 10° S 21:20:50 78° WSW 21:24:00 10° NNW
Cosmos 1782 4.2 21:18:19 10° NNE 21:21:32 23° ENE 21:23:48 15° ESE
Cosmos 1939 Rocket 4.0 21:19:41 13° ESE 21:22:15 25° ENE 21:25:29 10° NNE
H-2A R/B 3.3 21:21:11 13° ESE 21:24:00 24° ENE 21:27:27 10° NNE
Meteosat 1 Rocket2 4.3 21:19:05 10° WSW 21:24:34 57° S 21:33:07 10° E
USA 234 4.3 21:21:11 10° ENE 21:25:40 19° ESE 21:30:07 10° SSE
Cosmos 2074 Rocket 4.0 21:20:07 10° S 21:26:21 72° E 21:32:36 10° N
Cosmos 1892 2.6 21:25:55 10° S 21:29:44 89° E 21:33:35 10° N
OAO 3 Rocket 4.5 21:28:06 10° SSW 21:31:47 21° SSE 21:33:32 18° ESE
H-2A R/B 3.6 21:31:25 10° S 21:35:00 47° W 21:38:36 10° NNW
Cosmos 2056 Rocket 3.8 21:41:05 10° SSW 21:46:13 67° WNW 21:51:21 10° N
Meteor 2-6 Rocket 4.4 21:44:37 10° N 21:50:28 58° E 21:54:28 20° SSE
CENTAUR R/B 3.1 21:43:35 10° NNW 21:51:38 87° ENE 21:58:03 19° SSE
Sich 1 Rocket 3.6 21:47:44 10° S 21:52:15 66° E 21:56:49 10° NNE
Cosmos 1674 Rocket 3.5 21:51:59 10° N 21:56:25 68° E 21:58:53 25° SSE
Cosmos 2341 Rocket 4.2 21:57:20 19° SSE 22:01:47 50° E 22:07:48 10° NNE
ARGOS 4.4 22:01:08 21° E 22:02:37 24° ENE 22:06:51 10° NNE
Cosmos 1782 Rocket 4.1 22:04:17 35° ESE 22:05:08 38° E 22:09:18 10° NNE
COSMOS 2406 3.2 22:00:33 10° NNW 22:06:19 85° WSW 22:09:46 25° SSE
ATLAS 5 CENTAUR R/B 2.4 22:01:02 10° NNW 22:07:13 88° ENE 22:10:53 28° SSE
SL-27 R/B 2.4 22:04:40 10° NNW 22:08:20 81° ENE 22:09:10 50° SSE
COS B Rocket 3.2 22:05:23 10° N 22:09:25 60° E 22:10:09 48° SE
PSLV R/B 4.2 22:12:35 32° NE 22:12:35 32° NE 22:14:42 10° N
Okean 3 4.1 22:10:52 10° NNE 22:14:50 36° E 22:14:59 36° E
COSMOS 2487 4.2 22:13:37 10° NNE 22:15:53 21° NE 22:15:53 21° NE
Cosmos 2278 Rocket 2.1 22:10:59 10° S 22:16:36 70° ESE 22:22:16 10° NNE
SPOT 5 3.0 22:17:33 35° SSE 22:19:48 77° ENE 22:25:09 10° N
Cosmos 1844 4.0 22:14:33 10° SSW 22:20:15 69° WNW 22:26:03 10° NNE
Cosmos 1238 Rocket 3.1 22:17:29 10° N 22:20:11 42° ENE 22:20:11 42° ENE
EO 1 Delta rocket 4.4 22:15:26 10° N 22:21:27 72° WNW 22:25:55 13° SSW
Cosmos 1825 2.0 22:21:19 59° S 22:21:59 84° E 22:25:48 10° N
Envisat 3.2 22:20:01 26° S 22:22:54 68° WSW 22:27:58 10° NNW
SL-8 Rocket 4.4 22:21:27 36° SE 22:23:04 42° E 22:28:54 10° NNE
Cosmos 962 Rocket 4.4 22:19:02 22° S 22:23:06 76° E 22:29:18 10° N
ISS -2.8 22:20:29 10° WSW 22:23:41 59° NW 22:25:57 18° NE
Cosmos 1844 Rocket 3.8 22:19:41 10° SW 22:25:03 44° WNW 22:30:26 10° N
Cosmos 1975 Rocket 3.6 22:21:20 10° N 22:25:16 40° ENE 22:25:16 40° ENE
Terra 3.8 22:25:43 15° ENE 22:25:43 15° ENE 22:28:02 10° NNE
Cosmos 1862 3.5 22:24:03 34° SSW 22:25:43 74° W 22:29:47 10° N
YAOGAN 6 2.8 22:29:23 55° NE 22:29:23 55° NE 22:32:23 10° N
Cosmos 1908 Rocket 4.2 22:27:13 19° SSW 22:30:14 54° W 22:34:34 10° N
Cosmos 1408 2.6 22:29:48 64° SW 22:30:14 74° W 22:33:54 10° N
Cosmos 2154 Rocket 4.2 22:25:14 10° SSW 22:31:25 70° W 22:37:37 10° N
Cosmos 1420 Rocket 3.9 22:31:27 45° SSE 22:32:57 66° ESE 22:38:08 10° NNE
ERBS 3.1 22:30:39 10° NW 22:33:43 45° WSW 22:33:43 45° WSW
H-2A R/B 3.4 22:34:39 25° ENE 22:34:51 25° ENE 22:39:10 10° NNE
MetOp-A 4.0 22:34:32 45° SSE 22:36:16 89° WSW 22:41:39 10° NNW
USA 245 4.3 22:40:06 32° NNE 22:40:06 32° NNE 22:42:16 10° N
Cosmos 1378 Rocket 3.5 22:35:46 10° N 22:40:05 78° W 22:40:33 67° SSW
Cosmos 2082 Rocket 3.8 22:36:32 10° NNE 22:40:43 20° ENE 22:41:15 20° ENE
GPS 2-05 Rocket1 3.7 22:40:37 10° W 22:43:27 49° WNW 22:43:27 49° WNW
PSLV R/B 4.3 22:41:05 10° WNW 22:43:37 46° WNW 22:43:37 46° WNW
Cosmos 1242 Rocket 4.0 22:41:45 10° N 22:43:57 31° NNE 22:43:57 31° NNE
Cosmos 1295 Rocket 4.4 22:43:51 39° S 22:46:25 84° E 22:52:44 10° N
Cosmos 407 Rocket 4.0 22:41:46 10° NNW 22:46:56 56° WSW 22:48:30 40° SSW
BREEZE-M DEB (TANK) 3.7 22:45:17 10° WNW 22:47:09 38° WSW 22:47:09 38° WSW
Cosmos 2297 3.6 22:48:46 62° SE 22:49:16 65° ESE 22:54:57 10° NNE
SPOT 1/Viking Rocket 3.4 22:49:14 68° SE 22:49:54 82° ENE 22:55:07 10° N
SL-08 RB Rocket 4.0 22:51:07 56° NE 22:51:07 56° NE 22:55:16 10° N
deb Centaur AC-2 4.5 22:46:48 10° W 22:51:56 58° SSW 22:51:56 58° SSW
Meteor 1-27 Rocket 4.3 22:47:37 10° NNW 22:53:00 52° W 22:55:04 34° SSW
OAO 1 Rocket 4.3 22:48:50 10° WSW 22:53:50 73° SSW 22:53:50 73° SSW
Cosmos 1140 Rocket 3.5 22:53:21 10° N 22:58:17 63° ENE 22:58:17 63° ENE
H-2A R/B 4.1 22:58:19 18° SW 22:59:53 22° W 23:03:16 10° NW
Cosmos 489 Rocket 4.3 22:53:42 10° NNW 22:59:55 76° ENE 23:00:45 66° SE
NOAA 11 4.0 22:59:38 74° SSE 23:00:10 87° ENE 23:05:42 10° NNW
Cosmos 2366 rocket 3.9 23:01:47 63° ESE 23:02:15 65° E 23:08:30 10° NNE
USA 234 3.2 23:02:28 10° NE 23:09:01 84° NW 23:15:32 10° SW
Atlas Centaur 2 3.6 23:05:45 10° W 23:06:28 15° W 23:06:28 15° W
CZ-4B R/B 4.3 23:06:49 10° N 23:11:31 45° WNW 23:13:01 34° WSW
CZ-4 R/B 4.4 23:13:30 10° N 23:18:01 51° WNW 23:18:11 51° W
Cosmos 2218 Rocket 4.2 23:25:46 55° SW 23:27:00 67° W 23:33:23 10° N
Cosmos 1850 Rocket 4.3 23:21:56 10° NNW 23:26:29 66° NNW 23:26:29 66° NNW
DMSP B5D2-2 4.4 23:25:06 10° NNE 23:29:16 58° N 23:29:16 58° N
Meteor 1-25 Rocket 4.5 23:39:52 70° NNW 23:39:52 70° NNW 23:45:07 10° N
ARGOS 4.3 23:42:39 34° W 23:42:39 34° W 23:47:28 10° NNW
Cosmos 1727 Rocket 4.1 23:42:26 10° N 23:48:04 71° NW 23:48:04 71° NW
